Regional Weather Roundup
Issued by NWS

Home | Current Version | Previous Version | Graphics & Text | Print | Product List | Glossary On
Versions: 1 2 3 4 5 6 7 8 9 10 11 12 13 14 15 16 17 18 19 20 21 22 23 24 25 26 27 28 29 30 31 32 33 34 35 36 37 38 39 40 41 42 43 44 45 46 47 48 49 50
000
ASUS43 KOAX 290002
RWRNE

WEATHER ROUNDUP FOR NEBRASKA
NATIONAL WEATHER SERVICE OMAHA NE
600 PM CST WED JAN 28 2015

NOTES: SATELLITE DATA IS BEING USED TO AUGMENT CLOUD COVER ABOVE
       12000 FEET.
       "FAIR" INDICATES FEW OR NO CLOUDS BELOW 12,000 FEET WITH NO
       SIGNIFICANT WEATHER AND/OR OBSTRUCTIONS TO VISIBILITY.

  * THESE STATIONS DO NOT REPORT WEATHER SUCH AS RAIN...SNOW OR FOG.

NEZ001>004-019>022-054>056-290100-
NEBRASKA PANHANDLE

CITY           SKY/WX    TMP DP  RH WIND       PRES   REMARKS
SCOTTSBLUFF    CLOUDY    46  36  68 W10       30.12R
ALLIANCE       CLOUDY    45  32  60 N20       30.08R
6HR MIN TEMP:  45; 6HR MAX TEMP:  58;

CHADRON        CLOUDY    48  32  53 N5        30.07S
6HR MIN TEMP:  48; 6HR MAX TEMP:  55; 6HR PCP: TRACE;

SIDNEY         MOCLDY    45  36  70 NW18G30   30.11R
6HR MIN TEMP:  45; 6HR MAX TEMP:  58;

$$

NEZ057>060-069>072-079>082-290100-
SOUTHWEST NEBRASKA

CITY           SKY/WX    TMP DP  RH WIND       PRES   REMARKS
NORTH PLATTE   CLOUDY    56  29  35 NW24G36   29.96R
6HR MIN TEMP:  56; 6HR MAX TEMP:  66;

IMPERIAL       PTCLDY    54  34  46 NW25G35   30.01R
6HR MIN TEMP:  54; 6HR MAX TEMP:  64;

MCCOOK         PTCLDY    60  29  30 NW24G33   29.93R
6HR MIN TEMP:  60; 6HR MAX TEMP:  70;

$$

NEZ005>010-023>029-035>040-094-290100-
NORTH CENTRAL NEBRASKA

CITY           SKY/WX    TMP DP  RH WIND       PRES   REMARKS
VALENTINE      CLOUDY    54  27  35 NW23G33   29.93R
6HR MIN TEMP:  54; 6HR MAX TEMP:  62;

BROKEN BOW     MOCLDY    57  29  34 NW22G35   29.87R
6HR MIN TEMP:  57; 6HR MAX TEMP:  68;

ORD            PTCLDY    55  28  35 NW26G33   29.82R
6HR MIN TEMP:  55; 6HR MAX TEMP:  66;

$$

NEZ041-046>049-061>064-073>077-083>087-290100-
SOUTH CENTRAL NEBRASKA

CITY           SKY/WX    TMP DP  RH WIND       PRES   REMARKS
GRAND ISLAND   CLEAR     59  31  34 NW16      29.79R
6HR MIN TEMP:  55; 6HR MAX TEMP:  68;

AURORA         CLEAR     57  33  41 NW12      29.77R
HASTINGS       CLEAR     58  30  34 NW15      29.79R
6HR MIN TEMP:  58; 6HR MAX TEMP:  69;

KEARNEY *      CLEAR     57  30  35 NW15      29.84R
$$

NEZ011>018-030>034-042>045-290100-
NORTHEAST NEBRASKA

CITY           SKY/WX    TMP DP  RH WIND       PRES   REMARKS
NORFOLK        CLEAR     55  36  48 NW16      29.74R
6HR MIN TEMP:  47; 6HR MAX TEMP:  65;

ALBION         CLEAR     56  32  39 NW16G22   29.77R
BLAIR          CLEAR     53  34  49 W3        29.69S
COLUMBUS *     CLEAR     55  34  44 NW18      29.75R
TEKAMAH        CLEAR     49  35  58 CALM      29.70R
6HR MIN TEMP:  44; 6HR MAX TEMP:  56;

$$

NEZ050>053-065>068-078-088>093-290100-
SOUTHEAST NEBRASKA

CITY           SKY/WX    TMP DP  RH WIND       PRES   REMARKS
LINCOLN        CLEAR     51  34  52 CALM      29.72R
6HR MIN TEMP:  49; 6HR MAX TEMP:  64;

OMAHA EPPLEY   PTCLDY    49  34  56 NW5       29.69S
6HR MIN TEMP:  46; 6HR MAX TEMP:  59;

FALLS CITY     CLEAR     59  36  42 W12       29.69R
6HR MIN TEMP:  59; 6HR MAX TEMP:  72;

$$

NEZ044-045-051>053-067-290100-
OMAHA AREA

CITY           SKY/WX    TMP DP  RH WIND       PRES   REMARKS
OMAHA EPPLEY   PTCLDY    49  34  56 NW5       29.69S
6HR MIN TEMP:  46; 6HR MAX TEMP:  59;

BLAIR          CLEAR     53  34  49 W3        29.69S
OFFUTT AFB     CLEAR     49  34  56 W6        29.69S
$$



USA.gov is the U.S. government's official web portal to all federal, state and local government web resources and services.